SXM-7 (47240 NORAD) Tracking and Keplerian Element Data

This shows tracking and keplerian element data for the satellite.

Feedback or suggestion? Click here.




ElementValue
Catalog47240
NameSXM-7
Epoch Orbit132
Epoch Day99.70137547
Epoch Year2021
RAAN81.14
Inclination0.0642
Eccentricity3.38E-05
Argument of Perigee295.4697
Mean Anonmoly318.729
Mean Motion1.00274958
Decay Rate-3.8E-07
L11 47240U 20096A 21099.70137547 -.00000038 00000-0 00000-0 0 9991
L22 47240 0.0642 81.1400 0000338 295.4697 318.7290 1.00274958 1323

Live tracking and technical data element details for SXM-7 (NORAD 47240). SXM-7 can be tracked NOW for your location showing map with azimuth and elevation plus other details from your city location.

Track the satellite on the map from your city or location and see movement details for azimuth, elevation, latitude, longitude, range, height, and movement on the map or in text.







IsCatalogInMostPopularTable: catalog: 47240, numindb: 33
Update: records affected: 1



GetName: 47240 SXM-7

Hit Count: updated at: Sat, 10 Apr 2021 19:35:24 GMT